Weather History for Upington, South Africa

Change the Weather History Date:

Thursday, October 24, 2013

  Actual Average Record
Temperature  
Mean Temperature 76 °F -  
Max Temperature 95 °F 87 °F 95 °F (2013)
Min Temperature 58 °F 59 °F 48 °F (2002)
Cooling Degree Days 12    
Growing Degree Days 26 (Base 50)    
Moisture  
Dew Point 40 °F    
Average Humidity 28    
Maximum Humidity 50    
Minimum Humidity 7    
Precipitation  
Precipitation 0.16 in 0.00 in - ()
Sea Level Pressure  
Sea Level Pressure 29.92 in    
Wind  
Wind Speed 14 mph ()    
Max Wind Speed 30 mph    
Max Gust Speed 60 mph    
Visibility 4.3 miles    
Events Rain , Thunderstorm    
Averages and records for this station are not official NWS values.
T = Trace of Precipitation, MM = Missing Value Source: Averaged Metar Reports

Daily Weather History Graph

Daily Weather History Graph

Search for Another Location

Airport:

Trip Planner

Search our weather history database for the weather conditions in past years. The results will help you decide how hot, cold, wet, or windy it might be!

Date:

Astronomy

Oct. 24, 2013 Rise Set
Actual Time 5:49 AM SAST 6:49 PM SAST
Civil Twilight 5:24 AM SAST 7:13 PM SAST
Nautical Twilight 4:56 AM SAST 7:42 PM SAST
Astronomical Twilight 4:26 AM SAST 8:12 PM SAST
Moon 11:41 PM SAST (10/24) 9:48 AM SAST (10/24)
Length of Visible Light 13h 48m
Length of Day
13h 00m
Waning Gibbous, 73% of the Moon is Illuminated
Oct 24
Waning Gibbous
Oct 27
Last Quarter
Nov 3
New
Nov 10
First Quarter
Nov 17
Full

Hourly Weather History & Observations

Time (SAST) Temp. Dew Point Humidity Pressure Visibility Wind Dir Wind Speed Gust Speed Precip Events Conditions
12:00 AM 68.0 °F 24.8 °F 20% 30.01 in - NE 1.2 mph - N/A   Unknown
1:00 AM 62.6 °F 26.6 °F 26% 30.01 in - ENE 3.5 mph - N/A   Clear
2:00 AM 60 °F 23 °F 14%  in 25 mi East 6.9 mph - -  
2:00 AM 59.0 °F 24.8 °F 27% 29.98 in - East 6.9 mph - N/A   Clear
3:00 AM 60.8 °F 23.0 °F 23% 29.98 in - NE 6.9 mph - N/A   Clear
4:00 AM 62.6 °F 23.0 °F 22% 29.95 in - NE 5.8 mph - N/A   Clear
4:34 AM 68.0 °F 37.4 °F 33% 29.95 in - NNE 15.0 mph - N/A   Clear
5:00 AM 67 °F 38 °F 23%  in 25 mi NNE 16.1 mph - -  
5:00 AM 66.2 °F 37.4 °F 35% 29.95 in - NNE 16.1 mph - N/A   Clear
6:00 AM 66.2 °F 41.0 °F 40% 29.95 in - NNE 19.6 mph - N/A   Clear
7:00 AM 69.8 °F 42.8 °F 38% 29.98 in - NNE 21.9 mph 33.4 mph N/A   Clear
8:00 AM 74 °F 43 °F 22%  in 4 mi NNE 28.8 mph - -   Blowing Sand
8:00 AM 73.4 °F 42.8 °F 33% 30.01 in 3.7 mi NNE 27.6 mph 41.4 mph N/A   Unknown
9:00 AM 78.8 °F 42.8 °F 28% 30.01 in 3.7 mi NNE 28.8 mph 41.4 mph N/A   Unknown
9:42 AM 82.4 °F 42.8 °F 25% 30.01 in 4.3 mi North 28.8 mph 42.6 mph N/A   Unknown
10:00 AM 82.4 °F 42.8 °F 25% 30.01 in 4.3 mi North 26.5 mph - N/A   Unknown
11:00 AM 86 °F 41 °F 12%  in 4 mi North 27.6 mph - -   Blowing Sand
11:00 AM 84.2 °F 39.2 °F 20% 29.98 in 4.3 mi North 27.6 mph 40.3 mph N/A   Unknown
12:00 PM 87.8 °F 39.2 °F 18% 29.95 in 4.3 mi NNE 25.3 mph - N/A   Unknown
1:00 PM 91.4 °F 35.6 °F 14% 29.92 in 3.7 mi North 29.9 mph 41.4 mph N/A   Unknown
2:00 PM 91 °F 34 °F 7%  in 4 mi North 28.8 mph - -   Blowing Sand
2:00 PM 89.6 °F 33.8 °F 14% 29.89 in 3.7 mi North 27.6 mph 42.6 mph N/A   Unknown
3:00 PM 93.2 °F 35.6 °F 13% 29.86 in 2.5 mi NNE 27.6 mph 43.7 mph N/A   Partly Cloudy
3:37 PM 91.4 °F 35.6 °F 14% 29.83 in 2.5 mi NNE 25.3 mph 38.0 mph N/A Thunderstorm Thunderstorm
4:00 PM 89.6 °F 37.4 °F 16% 29.83 in 3.7 mi North 26.5 mph 40.3 mph N/A Thunderstorm Thunderstorm
4:34 PM 82.4 °F 33.8 °F 17% 29.80 in 2.5 mi NNE 25.3 mph 59.8 mph N/A Rain , Thunderstorm Light Thunderstorms and Rain
4:59 PM 73.4 °F 51.8 °F 47% 29.83 in 1.9 mi North 17.3 mph 57.5 mph N/A Rain Light Rain Showers
5:00 PM 76 °F 51 °F 31%  in 1 mi North 17.3 mph - - Rain Heavy Rain Showers
5:00 PM 75.2 °F 50.0 °F 41% 29.86 in 1.2 mi North 17.3 mph 57.5 mph N/A Rain Heavy Rain Showers
5:04 PM 75.2 °F 53.6 °F 47% 29.80 in 3.1 mi NW 24.2 mph 48.3 mph N/A Rain Light Rain Showers
7:00 PM 77.0 °F 50.0 °F 39% 29.80 in 6.2 mi North 6.9 mph - N/A   Partly Cloudy
8:00 PM 74 °F 50 °F 32%  in 19 mi NE 8.1 mph - -   Scattered Clouds
8:00 PM 73.4 °F 50.0 °F 44% 29.83 in 6.2 mi NE 6.9 mph - N/A   Partly Cloudy
9:00 PM 75.2 °F 48.2 °F 38% 29.89 in - SSW 1.2 mph - N/A   Unknown
10:00 PM 71.6 °F 51.8 °F 50% 29.92 in - NNW 3.5 mph - N/A   Unknown
11:00 PM 70 °F 47 °F 32%  in - SW 6.9 mph - -  
11:00 PM 69.8 °F 46.4 °F 43% 29.92 in - SW 6.9 mph - N/A   Unknown